XNO722 WMKP-WMKL

Flight info

Callsign XNO722
Flight time 0h 19m
Altitude 10000
Route OMBOK DCT KAPKO KAPKO1E
Aircraft A320/M-SDE3FGHIRWY/LB1

Departure

Time 2026-04-24 22:39
Airport Penang International Airport (WMKP)

Arrival

Time 2026-04-24 22:58
Airport Langkawi International Airport (WMKL)
Time Latitude Longitude Altitude Speed Heading
2026-04-24 22:15 5.29224 100.26645 23 ft 0 kts 311°
2026-04-24 22:32 5.29222 100.26648 23 ft 3 kts 311°
2026-04-24 22:32 5.29205 100.26668 23 ft 4 kts 307°
2026-04-24 22:32 5.29190 100.26691 23 ft 4 kts 296°
2026-04-24 22:32 5.29182 100.26715 23 ft 4 kts 259°
2026-04-24 22:33 5.29187 100.26727 23 ft 0 kts 220°
2026-04-24 22:35 5.29163 100.26706 23 ft 7 kts 222°
2026-04-24 22:35 5.29086 100.26637 23 ft 17 kts 221°
2026-04-24 22:35 5.28989 100.26602 23 ft 15 kts 150°
2026-04-24 22:36 5.28909 100.26667 25 ft 14 kts 156°
2026-04-24 22:36 5.28830 100.26625 23 ft 14 kts 222°
2026-04-24 22:36 5.28745 100.26578 25 ft 15 kts 188°
2026-04-24 22:36 5.28683 100.26597 24 ft 0 kts 139°
2026-04-24 22:37 5.28682 100.26597 24 ft 1 kts 139°
2026-04-24 22:37 5.28634 100.26644 23 ft 12 kts 127°
2026-04-24 22:37 5.28645 100.26714 23 ft 9 kts 48°
2026-04-24 22:38 5.28659 100.26727 23 ft 0 kts 44°
2026-04-24 22:38 5.28740 100.26799 24 ft 43 kts 41°
2026-04-24 22:38 5.29114 100.27140 25 ft 105 kts 41°
2026-04-24 22:39 5.29802 100.27764 26 ft 158 kts 42°
2026-04-24 22:39 5.30682 100.28561 462 ft 168 kts 41°
2026-04-24 22:39 5.31528 100.29325 1276 ft 160 kts 41°
2026-04-24 22:39 5.32360 100.30066 1873 ft 165 kts 41°
2026-04-24 22:40 5.33296 100.30872 2187 ft 190 kts 40°
2026-04-24 22:40 5.34350 100.31792 2522 ft 213 kts 41°
2026-04-24 22:40 5.35517 100.32824 2883 ft 235 kts 41°
2026-04-24 22:40 5.36831 100.33933 3257 ft 259 kts 33°
2026-04-24 22:41 5.38533 100.34632 3851 ft 271 kts 10°
2026-04-24 22:41 5.40431 100.34606 4629 ft 278 kts 346°
2026-04-24 22:41 5.42199 100.33797 5490 ft 285 kts 322°
2026-04-24 22:41 5.43531 100.32329 6336 ft 288 kts 305°
2026-04-24 22:42 5.44670 100.30675 7135 ft 290 kts 304°
2026-04-24 22:42 5.45813 100.28995 7920 ft 293 kts 305°
2026-04-24 22:42 5.46955 100.27316 8665 ft 297 kts 305°
2026-04-24 22:42 5.48147 100.25570 9419 ft 301 kts 305°
2026-04-24 22:43 5.49338 100.23829 9861 ft 316 kts 305°
2026-04-24 22:43 5.50632 100.21940 9989 ft 341 kts 304°
2026-04-24 22:43 5.52041 100.19889 10011 ft 370 kts 305°
2026-04-24 22:43 5.53539 100.17711 10000 ft 380 kts 305°
2026-04-24 22:44 5.54993 100.15589 10016 ft 360 kts 305°
2026-04-24 22:44 5.56379 100.13579 10015 ft 341 kts 307°
2026-04-24 22:44 5.57971 100.11909 10006 ft 323 kts 323°
2026-04-24 22:44 5.59843 100.10778 10013 ft 308 kts 335°
2026-04-24 22:45 5.61768 100.09867 10013 ft 305 kts 335°
2026-04-24 22:45 5.63680 100.08958 10005 ft 304 kts 335°
2026-04-24 22:45 5.65588 100.08046 10013 ft 304 kts 335°
2026-04-24 22:45 5.67497 100.07134 10010 ft 304 kts 335°
2026-04-24 22:46 5.69403 100.06223 10007 ft 303 kts 335°
2026-04-24 22:46 5.71310 100.05315 10012 ft 304 kts 335°
2026-04-24 22:46 5.73219 100.04406 10007 ft 303 kts 335°
2026-04-24 22:46 5.75122 100.03495 10013 ft 303 kts 335°
2026-04-24 22:47 5.77021 100.02583 10004 ft 303 kts 335°
2026-04-24 22:47 5.78923 100.01670 9936 ft 303 kts 335°
2026-04-24 22:47 5.80823 100.00757 9813 ft 303 kts 335°
2026-04-24 22:47 5.82721 99.99847 9679 ft 301 kts 336°
2026-04-24 22:48 5.84613 99.98941 9557 ft 301 kts 335°
2026-04-24 22:48 5.86502 99.98033 9421 ft 301 kts 335°
2026-04-24 22:48 5.88389 99.97128 9299 ft 300 kts 335°
2026-04-24 22:48 5.90272 99.96225 9173 ft 300 kts 335°
2026-04-24 22:49 5.92150 99.95322 9050 ft 299 kts 335°
2026-04-24 22:49 5.93994 99.94364 8921 ft 299 kts 328°
2026-04-24 22:49 5.95625 99.93076 8794 ft 299 kts 316°
2026-04-24 22:49 5.96949 99.91470 8672 ft 299 kts 303°
2026-04-24 22:50 5.97994 99.89666 8537 ft 299 kts 300°
2026-04-24 22:50 5.99019 99.87853 8426 ft 298 kts 300°
2026-04-24 22:50 6.00049 99.86045 8294 ft 298 kts 300°
2026-04-24 22:50 6.01081 99.84245 8169 ft 297 kts 301°
2026-04-24 22:51 6.02112 99.82448 8036 ft 296 kts 300°
2026-04-24 22:51 6.03138 99.80655 7921 ft 296 kts 300°
2026-04-24 22:51 6.04152 99.78881 7488 ft 296 kts 300°
2026-04-24 22:51 6.05184 99.77074 6958 ft 293 kts 300°
2026-04-24 22:52 6.06195 99.75304 6422 ft 291 kts 300°
2026-04-24 22:52 6.07181 99.73574 5908 ft 288 kts 300°
2026-04-24 22:52 6.08166 99.71843 5381 ft 284 kts 300°
2026-04-24 22:52 6.09141 99.70132 4868 ft 281 kts 301°
2026-04-24 22:53 6.10115 99.68424 4365 ft 282 kts 300°
2026-04-24 22:53 6.11083 99.66724 3998 ft 279 kts 301°
2026-04-24 22:53 6.12255 99.65209 3768 ft 269 kts 317°
2026-04-24 22:53 6.13722 99.64138 3677 ft 254 kts 333°
2026-04-24 22:54 6.15324 99.63519 3540 ft 242 kts 347°
2026-04-24 22:54 6.16960 99.63320 3338 ft 231 kts
2026-04-24 22:54 6.18488 99.63495 3110 ft 215 kts 14°
2026-04-24 22:54 6.19842 99.63975 2877 ft 199 kts 26°
2026-04-24 22:55 6.20979 99.64669 2630 ft 183 kts 34°
2026-04-24 22:55 6.21996 99.65361 2384 ft 170 kts 34°
2026-04-24 22:55 6.22946 99.66009 2158 ft 161 kts 34°
2026-04-24 22:55 6.23857 99.66629 1959 ft 156 kts 34°
2026-04-24 22:56 6.24748 99.67238 1755 ft 154 kts 34°
2026-04-24 22:56 6.25631 99.67842 1552 ft 153 kts 34°
2026-04-24 22:56 6.26510 99.68442 1350 ft 152 kts 34°
2026-04-24 22:56 6.27386 99.69040 1149 ft 152 kts 34°
2026-04-24 22:57 6.28259 99.69636 946 ft 151 kts 34°
2026-04-24 22:57 6.29117 99.70223 748 ft 151 kts 34°
2026-04-24 22:57 6.29984 99.70816 548 ft 150 kts 34°
2026-04-24 22:57 6.30849 99.71406 356 ft 150 kts 34°
2026-04-24 22:58 6.31711 99.71996 149 ft 150 kts 34°
2026-04-24 22:58 6.32549 99.72573 33 ft 134 kts 36°
2026-04-24 22:58 6.33211 99.73027 32 ft 99 kts 34°
2026-04-24 22:58 6.33644 99.73322 32 ft 28 kts 33°
2026-04-24 22:59 6.33760 99.73323 31 ft 6 kts 298°
2026-04-24 22:59 6.33777 99.73299 32 ft 8 kts 305°
2026-04-24 22:59 6.33861 99.73205 30 ft 16 kts 335°
2026-04-24 23:00 6.33955 99.73243 32 ft 15 kts 34°
2026-04-24 23:00 6.34040 99.73301 31 ft 15 kts 35°
2026-04-24 23:00 6.34110 99.73302 31 ft 7 kts 303°
2026-04-24 23:00 6.34127 99.73279 32 ft 0 kts 305°